ALA1260 UGTB-LUKK

Flight info

Callsign ALA1260
Flight time 2h 16m
Altitude 38000
Route ZAGOT DCT BARUS N11 ROLIN UN644 SIN UW90 INB UL746 ODERO DCT REVDA DCT PILAT DCT RIPGA DCT KODRU DCT LIPTA
Aircraft A320/M-SDE3FGHIRWY/LB1

Departure

Time 2026-05-04 18:16
Airport Tbilisi International Airport (UGTB)

Arrival

Time 2026-05-04 20:32
Airport Chişinău International Airport (LUKK)
Time Latitude Longitude Altitude Speed Heading
2026-05-04 17:46 41.66898 44.96347 1523 ft 0 kts 43°
2026-05-04 18:09 41.66868 44.96310 1519 ft 4 kts 46°
2026-05-04 18:10 41.66851 44.96282 1520 ft 4 kts 64°
2026-05-04 18:10 41.66846 44.96263 1520 ft 4 kts 104°
2026-05-04 18:10 41.66848 44.96254 1521 ft 0 kts 133°
2026-05-04 18:12 41.66847 44.96256 1521 ft 2 kts 133°
2026-05-04 18:12 41.66814 44.96301 1526 ft 11 kts 134°
2026-05-04 18:12 41.66744 44.96397 1525 ft 18 kts 134°
2026-05-04 18:13 41.66630 44.96412 1523 ft 17 kts 191°
2026-05-04 18:13 41.66514 44.96376 1525 ft 17 kts 193°
2026-05-04 18:13 41.66280 44.96301 1524 ft 19 kts 188°
2026-05-04 18:14 41.66147 44.96339 1524 ft 21 kts 149°
2026-05-04 18:14 41.66037 44.96473 1524 ft 22 kts 136°
2026-05-04 18:14 41.65915 44.96596 1525 ft 17 kts 175°
2026-05-04 18:15 41.65910 44.96372 1525 ft 13 kts 316°
2026-05-04 18:15 41.66409 44.95745 1526 ft 111 kts 316°
2026-05-04 18:15 41.67107 44.94868 1521 ft 163 kts 317°
2026-05-04 18:16 41.68007 44.93716 1843 ft 183 kts 316°
2026-05-04 18:16 41.68941 44.92532 2512 ft 188 kts 314°
2026-05-04 18:16 41.69911 44.91309 3213 ft 194 kts 315°
2026-05-04 18:17 41.72071 44.88652 3892 ft 236 kts 316°
2026-05-04 18:17 41.73343 44.87092 4253 ft 259 kts 316°
2026-05-04 18:17 41.76107 44.83677 5573 ft 280 kts 317°
2026-05-04 18:18 41.77551 44.81888 6336 ft 285 kts 317°
2026-05-04 18:18 41.79019 44.80057 7078 ft 290 kts 315°
2026-05-04 18:18 41.80123 44.77805 7774 ft 294 kts 285°
2026-05-04 18:18 41.80405 44.75098 8539 ft 295 kts 267°
2026-05-04 18:19 41.80017 44.69619 10116 ft 300 kts 259°
2026-05-04 18:19 41.79757 44.66757 10462 ft 321 kts 261°
2026-05-04 18:19 41.79541 44.63674 10639 ft 344 kts 263°
2026-05-04 18:20 41.79384 44.60361 10842 ft 365 kts 265°
2026-05-04 18:20 41.79286 44.56923 11357 ft 373 kts 265°
2026-05-04 18:20 41.79223 44.53430 11990 ft 375 kts 266°
2026-05-04 18:20 41.79176 44.49922 12603 ft 379 kts 265°
2026-05-04 18:21 41.79130 44.46407 13238 ft 383 kts 265°
2026-05-04 18:21 41.79080 44.42824 13873 ft 387 kts 265°
2026-05-04 18:21 41.79024 44.39207 14463 ft 390 kts 264°
2026-05-04 18:21 41.78960 44.35561 15013 ft 393 kts 264°
2026-05-04 18:22 41.78887 44.31895 15569 ft 396 kts 264°
2026-05-04 18:22 41.78807 44.28190 16137 ft 399 kts 264°
2026-05-04 18:22 41.78728 44.24459 16703 ft 402 kts 264°
2026-05-04 18:22 41.78648 44.20681 17256 ft 406 kts 264°
2026-05-04 18:23 41.78568 44.16895 17857 ft 410 kts 264°
2026-05-04 18:23 41.78577 44.13047 18370 ft 417 kts 270°
2026-05-04 18:23 41.78923 44.09145 18814 ft 423 kts 273°
2026-05-04 18:23 41.79301 44.05280 19295 ft 425 kts 273°
2026-05-04 18:24 41.79688 44.01329 19772 ft 428 kts 273°
2026-05-04 18:24 41.80076 43.97357 20228 ft 431 kts 274°
2026-05-04 18:24 41.80463 43.93352 20630 ft 434 kts 273°
2026-05-04 18:24 41.80848 43.89318 21058 ft 437 kts 273°
2026-05-04 18:25 41.81234 43.85276 21462 ft 440 kts 273°
2026-05-04 18:25 41.81624 43.81194 21854 ft 442 kts 273°
2026-05-04 18:25 41.82014 43.77087 22283 ft 445 kts 274°
2026-05-04 18:25 41.82402 43.72943 22610 ft 450 kts 274°
2026-05-04 18:26 41.82791 43.68765 22949 ft 453 kts 274°
2026-05-04 18:26 41.83184 43.64551 23289 ft 456 kts 274°
2026-05-04 18:26 41.83576 43.60325 23635 ft 458 kts 274°
2026-05-04 18:26 41.83970 43.56061 23887 ft 461 kts 274°
2026-05-04 18:27 41.84359 43.51848 24192 ft 462 kts 273°
2026-05-04 18:27 41.84754 43.47562 24518 ft 463 kts 273°
2026-05-04 18:27 41.85148 43.43278 24807 ft 463 kts 273°
2026-05-04 18:27 41.85541 43.38983 25105 ft 465 kts 272°
2026-05-04 18:28 41.85931 43.34669 25394 ft 468 kts 272°
2026-05-04 18:28 41.86322 43.30324 25665 ft 470 kts 272°
2026-05-04 18:28 41.86715 43.25952 25933 ft 472 kts 272°
2026-05-04 18:28 41.87103 43.21637 26219 ft 473 kts 272°
2026-05-04 18:29 41.87495 43.17240 26538 ft 474 kts 271°
2026-05-04 18:29 41.87886 43.12850 26804 ft 475 kts 271°
2026-05-04 18:29 41.88278 43.08434 27051 ft 477 kts 271°
2026-05-04 18:29 41.88670 43.04009 27299 ft 478 kts 271°
2026-05-04 18:30 41.89440 42.95161 27951 ft 476 kts 271°
2026-05-04 18:30 41.89821 42.90736 28230 ft 477 kts 271°
2026-05-04 18:30 41.90200 42.86320 28521 ft 475 kts 270°
2026-05-04 18:31 41.90308 42.81917 28804 ft 468 kts 262°
2026-05-04 18:31 41.90143 42.77616 29112 ft 466 kts 261°
2026-05-04 18:31 41.89972 42.73283 29390 ft 465 kts 261°
2026-05-04 18:31 41.89799 42.68947 29714 ft 464 kts 261°
2026-05-04 18:32 41.89627 42.64634 30005 ft 463 kts 261°
2026-05-04 18:32 41.89453 42.60321 30313 ft 462 kts 261°
2026-05-04 18:32 41.89277 42.56014 30565 ft 462 kts 261°
2026-05-04 18:32 41.89100 42.51708 30811 ft 461 kts 261°
2026-05-04 18:33 41.88920 42.47409 31050 ft 462 kts 262°
2026-05-04 18:33 41.88739 42.43094 31255 ft 463 kts 262°
2026-05-04 18:33 41.88559 42.38824 31442 ft 463 kts 262°
2026-05-04 18:33 41.88375 42.34517 31652 ft 463 kts 262°
2026-05-04 18:34 41.88189 42.30207 31897 ft 463 kts 262°
2026-05-04 18:34 41.87997 42.25841 32144 ft 462 kts 262°
2026-05-04 18:34 41.87809 42.21579 32398 ft 462 kts 262°
2026-05-04 18:34 41.87619 42.17276 32686 ft 462 kts 262°
2026-05-04 18:35 41.87430 42.12986 32973 ft 460 kts 262°
2026-05-04 18:35 41.87241 42.08705 33246 ft 459 kts 262°
2026-05-04 18:35 41.87051 42.04423 33521 ft 459 kts 262°
2026-05-04 18:35 41.86859 42.00154 33829 ft 458 kts 262°
2026-05-04 18:36 41.86664 41.95867 33983 ft 460 kts 262°
2026-05-04 18:36 41.86465 41.91578 34163 ft 461 kts 262°
2026-05-04 18:36 41.86266 41.87346 34373 ft 461 kts 262°
2026-05-04 18:36 41.86060 41.83007 34588 ft 460 kts 262°
2026-05-04 18:37 41.85859 41.78776 34802 ft 460 kts 262°
2026-05-04 18:37 41.85655 41.74500 35006 ft 459 kts 262°
2026-05-04 18:37 41.85449 41.70224 35224 ft 459 kts 262°
2026-05-04 18:37 41.85239 41.65948 35425 ft 458 kts 262°
2026-05-04 18:38 41.85027 41.61688 35620 ft 457 kts 262°
2026-05-04 18:38 41.84818 41.57434 35810 ft 457 kts 262°
2026-05-04 18:38 41.84612 41.53185 35991 ft 456 kts 262°
2026-05-04 18:38 41.84405 41.48940 36186 ft 456 kts 262°
2026-05-04 18:39 41.84193 41.44690 36306 ft 457 kts 262°
2026-05-04 18:39 41.83980 41.40441 36452 ft 457 kts 262°
2026-05-04 18:39 41.83768 41.36245 36608 ft 456 kts 262°
2026-05-04 18:39 41.83549 41.31941 36769 ft 456 kts 262°
2026-05-04 18:40 41.83331 41.27761 36926 ft 456 kts 262°
2026-05-04 18:40 41.83107 41.23526 37094 ft 455 kts 262°
2026-05-04 18:40 41.82880 41.19299 37271 ft 454 kts 262°
2026-05-04 18:40 41.82652 41.15078 37417 ft 453 kts 262°
2026-05-04 18:41 41.82424 41.10872 37554 ft 453 kts 262°
2026-05-04 18:41 41.82197 41.06664 37685 ft 452 kts 262°
2026-05-04 18:41 41.81971 41.02471 37843 ft 451 kts 262°
2026-05-04 18:42 41.81515 40.94049 37888 ft 454 kts 262°
2026-05-04 18:42 41.81050 40.85607 37892 ft 454 kts 262°
2026-05-04 18:43 41.80580 40.77208 37903 ft 454 kts 262°
2026-05-04 18:43 41.80094 40.68769 37893 ft 454 kts 262°
2026-05-04 18:44 41.80148 40.60265 37896 ft 458 kts 270°
2026-05-04 18:44 41.80532 40.51777 37899 ft 459 kts 270°
2026-05-04 18:45 41.80909 40.43234 37899 ft 459 kts 270°
2026-05-04 18:45 41.81272 40.34694 37903 ft 459 kts 269°
2026-05-04 18:46 41.81622 40.26147 37909 ft 459 kts 269°
2026-05-04 18:46 41.81973 40.17596 37914 ft 459 kts 270°
2026-05-04 18:47 41.82318 40.09038 37924 ft 459 kts 270°
2026-05-04 18:47 41.82649 40.00473 37917 ft 460 kts 270°
2026-05-04 18:48 41.82978 39.91961 37916 ft 460 kts 270°
2026-05-04 18:48 41.83305 39.83382 37914 ft 460 kts 270°
2026-05-04 18:49 41.83623 39.74807 37915 ft 460 kts 270°
2026-05-04 18:49 41.83936 39.66220 37920 ft 461 kts 270°
2026-05-04 18:50 41.84236 39.57689 37926 ft 461 kts 270°
2026-05-04 18:50 41.84531 39.49100 37921 ft 461 kts 270°
2026-05-04 18:51 41.84834 39.40508 37922 ft 461 kts 270°
2026-05-04 18:51 41.85122 39.31918 37918 ft 461 kts 270°
2026-05-04 18:52 41.85401 39.23325 37927 ft 461 kts 270°
2026-05-04 18:52 41.85674 39.14787 37921 ft 461 kts 270°
2026-05-04 18:53 41.85940 39.06178 37924 ft 462 kts 270°
2026-05-04 18:53 41.86198 38.97570 37925 ft 462 kts 270°
2026-05-04 18:54 41.86453 38.88955 37925 ft 462 kts 270°
2026-05-04 18:54 41.86704 38.80343 37928 ft 462 kts 270°
2026-05-04 18:55 41.86955 38.71718 37927 ft 462 kts 270°
2026-05-04 18:55 41.87303 38.58830 37932 ft 463 kts 270°
2026-05-04 18:56 41.87533 38.50192 37928 ft 463 kts 270°
2026-05-04 18:56 41.87760 38.41559 37942 ft 463 kts 270°
2026-05-04 18:57 41.87973 38.32913 37932 ft 463 kts 270°
2026-05-04 18:57 41.88179 38.24327 37934 ft 464 kts 270°
2026-05-04 18:58 41.88376 38.15671 37939 ft 464 kts 270°
2026-05-04 18:58 41.88568 38.07016 37942 ft 464 kts 270°
2026-05-04 18:59 41.88760 37.98345 37947 ft 464 kts 270°
2026-05-04 18:59 41.88944 37.89679 37943 ft 465 kts 270°
2026-05-04 19:00 41.89123 37.81056 37955 ft 465 kts 270°
2026-05-04 19:00 41.89293 37.72371 37954 ft 465 kts 270°
2026-05-04 19:01 41.89458 37.63691 37953 ft 465 kts 270°
2026-05-04 19:01 41.89609 37.54995 37958 ft 465 kts 270°
2026-05-04 19:02 41.89759 37.46297 37952 ft 466 kts 270°
2026-05-04 19:02 41.89904 37.37600 37949 ft 466 kts 270°
2026-05-04 19:03 41.90040 37.28896 37960 ft 466 kts 270°
2026-05-04 19:03 41.90168 37.20252 37960 ft 466 kts 270°
2026-05-04 19:04 41.90294 37.11546 37954 ft 467 kts 270°
2026-05-04 19:04 41.90399 37.04296 37956 ft 467 kts 270°
2026-05-04 19:05 41.90826 36.95583 37946 ft 468 kts 274°
2026-05-04 19:05 41.91528 36.86892 37947 ft 469 kts 275°
2026-05-04 19:06 41.92208 36.78155 37940 ft 472 kts 274°
2026-05-04 19:06 41.92805 36.69325 37944 ft 475 kts 274°
2026-05-04 19:07 41.93367 36.60504 37937 ft 478 kts 274°
2026-05-04 19:07 41.93936 36.51597 37936 ft 479 kts 274°
2026-05-04 19:08 41.94499 36.42658 37942 ft 481 kts 274°
2026-05-04 19:08 41.95063 36.33709 37943 ft 481 kts 274°
2026-05-04 19:09 41.95630 36.24736 37942 ft 482 kts 274°
2026-05-04 19:09 41.96190 36.15743 37942 ft 483 kts 274°
2026-05-04 19:10 41.96736 36.06744 37942 ft 483 kts 274°
2026-05-04 19:10 41.97273 35.97743 37947 ft 483 kts 274°
2026-05-04 19:11 41.97807 35.88729 37941 ft 484 kts 274°
2026-05-04 19:11 41.98337 35.79712 37942 ft 484 kts 274°
2026-05-04 19:12 41.99115 35.66225 37944 ft 485 kts 274°
2026-05-04 19:13 41.99622 35.57187 37948 ft 485 kts 274°
2026-05-04 19:13 42.00130 35.48142 37945 ft 485 kts 274°
2026-05-04 19:14 42.00631 35.39079 37934 ft 486 kts 274°
2026-05-04 19:14 42.01123 35.29998 37920 ft 487 kts 274°
2026-05-04 19:15 42.01614 35.20926 37923 ft 487 kts 274°
2026-05-04 19:15 42.02087 35.11886 37922 ft 487 kts 274°
2026-05-04 19:16 42.02062 35.02790 37921 ft 487 kts 265°
2026-05-04 19:16 42.01590 34.93700 37920 ft 487 kts 266°
2026-05-04 19:17 42.01127 34.84595 37923 ft 487 kts 266°
2026-05-04 19:17 42.00690 34.75493 37911 ft 488 kts 266°
2026-05-04 19:18 42.00258 34.66388 37919 ft 488 kts 266°
2026-05-04 19:18 41.99814 34.57346 37919 ft 488 kts 266°
2026-05-04 19:19 41.99354 34.48252 37917 ft 488 kts 266°
2026-05-04 19:19 41.98886 34.39143 37921 ft 488 kts 266°
2026-05-04 19:20 41.98410 34.30049 37951 ft 487 kts 266°
2026-05-04 19:20 41.97930 34.20961 37949 ft 487 kts 266°
2026-05-04 19:21 41.97440 34.11877 37945 ft 487 kts 266°
2026-05-04 19:21 41.96947 34.02797 37945 ft 487 kts 266°
2026-05-04 19:22 41.96448 33.93723 37948 ft 487 kts 266°
2026-05-04 19:22 41.95937 33.84646 37950 ft 487 kts 266°
2026-05-04 19:23 41.95421 33.75564 37950 ft 487 kts 267°
2026-05-04 19:23 41.95925 33.66614 37948 ft 484 kts 285°
2026-05-04 19:24 41.97635 33.57869 37949 ft 484 kts 286°
2026-05-04 19:24 41.99312 33.49109 37942 ft 484 kts 286°
2026-05-04 19:25 42.00977 33.40320 37940 ft 485 kts 286°
2026-05-04 19:25 42.02649 33.31535 37935 ft 485 kts 286°
2026-05-04 19:26 42.04321 33.22747 37933 ft 485 kts 286°
2026-05-04 19:26 42.05991 33.13955 37932 ft 484 kts 286°
2026-05-04 19:27 42.07653 33.05175 37932 ft 484 kts 287°
2026-05-04 19:27 42.09410 32.96442 37925 ft 483 kts 288°
2026-05-04 19:28 42.11214 32.87781 37921 ft 483 kts 288°
2026-05-04 19:28 42.13015 32.79050 37930 ft 483 kts 288°
2026-05-04 19:29 42.14789 32.70318 37918 ft 483 kts 287°
2026-05-04 19:29 42.16543 32.61569 37905 ft 484 kts 287°
2026-05-04 19:30 42.18293 32.52808 37909 ft 484 kts 287°
2026-05-04 19:30 42.20026 32.44102 37924 ft 484 kts 287°
2026-05-04 19:31 42.21770 32.35339 37918 ft 484 kts 287°
2026-05-04 19:31 42.23504 32.26559 37922 ft 484 kts 287°
2026-05-04 19:32 42.25229 32.17782 37913 ft 483 kts 287°
2026-05-04 19:32 42.26936 32.09028 37921 ft 483 kts 287°
2026-05-04 19:33 42.28649 32.00263 37921 ft 482 kts 287°
2026-05-04 19:33 42.30356 31.91503 37926 ft 482 kts 287°
2026-05-04 19:34 42.32052 31.82753 37923 ft 480 kts 288°
2026-05-04 19:34 42.33718 31.74093 37933 ft 478 kts 288°
2026-05-04 19:35 42.35390 31.65392 37933 ft 477 kts 288°
2026-05-04 19:35 42.37058 31.56711 37935 ft 477 kts 288°
2026-05-04 19:36 42.38722 31.48027 37932 ft 477 kts 288°
2026-05-04 19:36 42.40367 31.39337 37940 ft 476 kts 288°
2026-05-04 19:37 42.42000 31.30647 37941 ft 476 kts 288°
2026-05-04 19:37 42.43628 31.21958 37955 ft 476 kts 288°
2026-05-04 19:38 42.45254 31.13269 37959 ft 475 kts 288°
2026-05-04 19:38 42.46859 31.04646 37961 ft 475 kts 288°
2026-05-04 19:39 42.48466 30.95970 37968 ft 475 kts 287°
2026-05-04 19:39 42.50060 30.87286 37954 ft 475 kts 287°
2026-05-04 19:40 42.51647 30.78601 37979 ft 474 kts 288°
2026-05-04 19:40 42.53236 30.69929 37984 ft 474 kts 288°
2026-05-04 19:41 42.54819 30.61256 37982 ft 473 kts 287°
2026-05-04 19:41 42.56375 30.52644 37966 ft 473 kts 287°
2026-05-04 19:42 42.57933 30.43974 37983 ft 473 kts 287°
2026-05-04 19:42 42.59482 30.35309 37990 ft 472 kts 288°
2026-05-04 19:43 42.62082 30.27289 37992 ft 461 kts 308°
2026-05-04 19:43 42.66471 30.21147 37980 ft 450 kts 327°
2026-05-04 19:44 42.71568 30.16193 38008 ft 450 kts 327°
2026-05-04 19:44 42.76616 30.11230 38008 ft 450 kts 327°
2026-05-04 19:45 42.81680 30.06235 38011 ft 449 kts 327°
2026-05-04 19:45 42.86752 30.01239 38014 ft 449 kts 327°
2026-05-04 19:46 42.91822 29.96245 38017 ft 449 kts 327°
2026-05-04 19:46 42.96884 29.91243 38022 ft 449 kts 326°
2026-05-04 19:47 43.01910 29.86254 38020 ft 449 kts 327°
2026-05-04 19:47 43.06959 29.81238 38027 ft 448 kts 326°
2026-05-04 19:48 43.12006 29.76220 38024 ft 448 kts 326°
2026-05-04 19:48 43.17047 29.71183 38024 ft 448 kts 326°
2026-05-04 19:49 43.22087 29.66147 38025 ft 448 kts 326°
2026-05-04 19:49 43.27132 29.61102 38031 ft 449 kts 326°
2026-05-04 19:50 43.32173 29.56047 38025 ft 449 kts 326°
2026-05-04 19:50 43.37213 29.50978 38032 ft 449 kts 326°
2026-05-04 19:51 43.42248 29.45907 38017 ft 449 kts 326°
2026-05-04 19:51 43.47271 29.40827 38045 ft 449 kts 326°
2026-05-04 19:52 43.52311 29.35720 38042 ft 449 kts 326°
2026-05-04 19:52 43.57349 29.30619 38040 ft 449 kts 326°
2026-05-04 19:53 43.62357 29.25544 38041 ft 449 kts 326°
2026-05-04 19:53 43.66562 29.21260 38049 ft 449 kts 326°
2026-05-04 19:54 43.71583 29.16128 38044 ft 449 kts 326°
2026-05-04 19:54 43.76647 29.11074 38050 ft 449 kts 327°
2026-05-04 19:55 43.81829 29.06241 38041 ft 448 kts 328°
2026-05-04 19:55 43.86990 29.01490 38049 ft 448 kts 328°
2026-05-04 19:56 43.92165 28.96652 38049 ft 448 kts 328°
2026-05-04 19:56 43.97315 28.91773 38053 ft 448 kts 327°
2026-05-04 19:57 44.02463 28.86872 38048 ft 448 kts 327°
2026-05-04 19:57 44.07609 28.81985 38057 ft 448 kts 327°
2026-05-04 19:58 44.12753 28.77100 38057 ft 448 kts 327°
2026-05-04 19:58 44.17905 28.72196 38057 ft 448 kts 327°
2026-05-04 19:59 44.23050 28.67280 38050 ft 448 kts 327°
2026-05-04 19:59 44.28156 28.62384 38056 ft 448 kts 327°
2026-05-04 20:00 44.33296 28.57447 38053 ft 448 kts 327°
2026-05-04 20:00 44.38430 28.52500 38057 ft 448 kts 327°
2026-05-04 20:01 44.43570 28.47539 38051 ft 448 kts 327°
2026-05-04 20:01 44.48697 28.42586 38057 ft 448 kts 327°
2026-05-04 20:02 44.53804 28.37646 38057 ft 448 kts 327°
2026-05-04 20:02 44.58942 28.32666 38058 ft 449 kts 327°
2026-05-04 20:03 44.64073 28.27670 38048 ft 449 kts 326°
2026-05-04 20:03 44.69215 28.22663 38053 ft 449 kts 326°
2026-05-04 20:04 44.74345 28.17650 38054 ft 449 kts 326°
2026-05-04 20:04 44.79476 28.12624 38056 ft 449 kts 326°
2026-05-04 20:05 44.84930 28.08417 38039 ft 447 kts 340°
2026-05-04 20:05 44.90756 28.05341 38048 ft 447 kts 340°
2026-05-04 20:06 44.96573 28.02254 38049 ft 447 kts 340°
2026-05-04 20:06 45.02409 27.99156 38046 ft 447 kts 340°
2026-05-04 20:07 45.08241 27.96062 38046 ft 448 kts 340°
2026-05-04 20:07 45.14074 27.92947 38036 ft 448 kts 340°
2026-05-04 20:08 45.20073 27.90961 38044 ft 447 kts 357°
2026-05-04 20:08 45.26305 27.91758 38043 ft 448 kts
2026-05-04 20:09 45.32431 27.93112 38044 ft 449 kts
2026-05-04 20:09 45.38621 27.94447 38042 ft 449 kts
2026-05-04 20:10 45.44816 27.95797 38046 ft 450 kts
2026-05-04 20:10 45.50995 27.97156 38045 ft 450 kts
2026-05-04 20:11 45.57209 27.98530 37457 ft 452 kts
2026-05-04 20:11 45.60314 27.99218 36575 ft 451 kts
2026-05-04 20:11 45.63391 27.99901 36281 ft 444 kts
2026-05-04 20:11 45.66438 28.00574 36025 ft 443 kts
2026-05-04 20:12 45.69488 28.01248 35771 ft 443 kts
2026-05-04 20:12 45.72535 28.01923 35520 ft 444 kts
2026-05-04 20:12 45.75593 28.02603 34880 ft 447 kts
2026-05-04 20:12 45.78676 28.03289 33996 ft 450 kts
2026-05-04 20:13 45.81788 28.03980 33040 ft 453 kts
2026-05-04 20:13 45.84863 28.04665 32102 ft 454 kts
2026-05-04 20:13 45.88001 28.05362 31081 ft 458 kts
2026-05-04 20:13 45.91156 28.06065 30089 ft 460 kts
2026-05-04 20:14 45.94329 28.06776 28881 ft 462 kts
2026-05-04 20:14 45.97509 28.07493 27729 ft 463 kts
2026-05-04 20:14 46.00693 28.08211 26530 ft 463 kts
2026-05-04 20:14 46.03881 28.08930 25310 ft 463 kts
2026-05-04 20:15 46.07061 28.09646 24140 ft 462 kts
2026-05-04 20:15 46.10230 28.10359 22900 ft 460 kts 10°
2026-05-04 20:15 46.13363 28.11065 22074 ft 450 kts 10°
2026-05-04 20:15 46.16421 28.11829 21145 ft 443 kts 14°
2026-05-04 20:16 46.19321 28.13203 20330 ft 434 kts 24°
2026-05-04 20:16 46.21969 28.15231 19461 ft 428 kts 33°
2026-05-04 20:16 46.24390 28.17696 18629 ft 424 kts 36°
2026-05-04 20:16 46.26766 28.20153 17860 ft 417 kts 36°
2026-05-04 20:17 46.29089 28.22554 16967 ft 399 kts 36°
2026-05-04 20:17 46.31284 28.24827 16263 ft 381 kts 36°
2026-05-04 20:17 46.33404 28.27023 15582 ft 379 kts 36°
2026-05-04 20:17 46.35549 28.29245 14906 ft 377 kts 36°
2026-05-04 20:18 46.37677 28.31448 14250 ft 375 kts 36°
2026-05-04 20:18 46.39792 28.33637 13579 ft 372 kts 36°
2026-05-04 20:18 46.41885 28.35807 12929 ft 367 kts 35°
2026-05-04 20:18 46.43945 28.37948 12312 ft 362 kts 35°
2026-05-04 20:19 46.45975 28.40061 11687 ft 356 kts 35°
2026-05-04 20:19 46.47973 28.42141 11246 ft 346 kts 35°
2026-05-04 20:19 46.49875 28.44127 11119 ft 328 kts 34°
2026-05-04 20:19 46.51681 28.46016 10991 ft 312 kts 34°
2026-05-04 20:20 46.53397 28.47813 10873 ft 297 kts 34°
2026-05-04 20:20 46.55035 28.49529 10749 ft 284 kts 34°
2026-05-04 20:20 46.56603 28.51172 10624 ft 272 kts 34°
2026-05-04 20:20 46.58106 28.52743 10465 ft 262 kts 34°
2026-05-04 20:21 46.59574 28.54276 10204 ft 257 kts 34°
2026-05-04 20:21 46.61100 28.55579 9985 ft 253 kts 21°
2026-05-04 20:21 46.64552 28.56078 9727 ft 258 kts 352°
2026-05-04 20:22 46.66294 28.55215 9593 ft 263 kts 342°
2026-05-04 20:22 46.67951 28.54176 9452 ft 254 kts 342°
2026-05-04 20:22 46.69516 28.53191 9321 ft 243 kts 342°
2026-05-04 20:22 46.71036 28.52234 9184 ft 233 kts 342°
2026-05-04 20:23 46.72542 28.51522 8913 ft 223 kts 355°
2026-05-04 20:23 46.74061 28.51446 8409 ft 217 kts 10°
2026-05-04 20:23 46.75508 28.51979 7802 ft 214 kts 24°
2026-05-04 20:23 46.76921 28.52844 6909 ft 228 kts 24°
2026-05-04 20:24 46.78442 28.53771 5868 ft 244 kts 24°
2026-05-04 20:24 46.80027 28.54732 5319 ft 250 kts 24°
2026-05-04 20:24 46.81641 28.55706 4961 ft 247 kts 24°
2026-05-04 20:24 46.83181 28.56632 4906 ft 232 kts 24°
2026-05-04 20:25 46.84628 28.57502 4863 ft 218 kts 24°
2026-05-04 20:25 46.85999 28.58328 4734 ft 208 kts 24°
2026-05-04 20:25 46.87310 28.59120 4603 ft 199 kts 25°
2026-05-04 20:25 46.88542 28.59868 4510 ft 187 kts 25°
2026-05-04 20:26 46.89707 28.60574 4375 ft 176 kts 25°
2026-05-04 20:26 46.90773 28.61287 4269 ft 162 kts 34°
2026-05-04 20:26 46.91567 28.62356 4121 ft 151 kts 54°
2026-05-04 20:26 46.92035 28.63694 3909 ft 149 kts 75°
2026-05-04 20:27 46.92172 28.65195 3796 ft 150 kts 88°
2026-05-04 20:27 46.92206 28.66698 3622 ft 145 kts 85°
2026-05-04 20:27 46.92237 28.68127 3424 ft 138 kts 84°
2026-05-04 20:27 46.92268 28.69515 3246 ft 136 kts 84°
2026-05-04 20:28 46.92300 28.70902 3063 ft 135 kts 83°
2026-05-04 20:28 46.92330 28.72253 2873 ft 134 kts 85°
2026-05-04 20:28 46.92361 28.73621 2697 ft 135 kts 85°
2026-05-04 20:28 46.92392 28.74994 2521 ft 135 kts 84°
2026-05-04 20:29 46.92422 28.76357 2351 ft 134 kts 84°
2026-05-04 20:29 46.92451 28.77714 2163 ft 133 kts 85°
2026-05-04 20:29 46.92481 28.79072 1984 ft 134 kts 85°
2026-05-04 20:29 46.92511 28.80430 1807 ft 133 kts 84°
2026-05-04 20:30 46.92540 28.81774 1632 ft 131 kts 86°
2026-05-04 20:30 46.92569 28.83121 1456 ft 132 kts 86°
2026-05-04 20:30 46.92598 28.84467 1275 ft 132 kts 85°
2026-05-04 20:30 46.92626 28.85804 1075 ft 135 kts 84°
2026-05-04 20:31 46.92666 28.87161 943 ft 134 kts 86°
2026-05-04 20:31 46.92689 28.88535 731 ft 136 kts 86°
2026-05-04 20:31 46.92719 28.89906 561 ft 134 kts 86°
2026-05-04 20:31 46.92749 28.91240 415 ft 129 kts 89°
2026-05-04 20:32 46.92768 28.92362 409 ft 87 kts 89°
2026-05-04 20:32 46.92781 28.93002 409 ft 45 kts 88°
2026-05-04 20:32 46.92797 28.93369 405 ft 25 kts 57°
2026-05-04 20:32 46.92918 28.93416 409 ft 15 kts 355°
2026-05-04 20:33 46.93013 28.93419 409 ft 9 kts
2026-05-04 20:33 46.93069 28.93430 409 ft 7 kts
2026-05-04 20:33 46.93107 28.93437 411 ft 4 kts
2026-05-04 20:33 46.93119 28.93438 411 ft 0 kts
2026-05-04 20:34 46.93126 28.93439 411 ft 4 kts
2026-05-04 20:34 46.93185 28.93450 410 ft 11 kts
2026-05-04 20:34 46.93268 28.93464 407 ft 12 kts
2026-05-04 20:34 46.93329 28.93499 408 ft 8 kts 70°
2026-05-04 20:35 46.93326 28.93577 408 ft 7 kts 74°
2026-05-04 20:35 46.93352 28.93598 408 ft 0 kts 14°
2026-05-04 20:35 46.93362 28.93601 408 ft 1 kts
2026-05-04 20:35 46.93370 28.93602 408 ft 1 kts
2026-05-04 20:36 46.93371 28.93602 408 ft 0 kts